| time (UTC) | temp F | wind direction | speed knots | gust knots | rain 1hr in | rain 24hr in | rain mn in | humidity % | barometer mb |
| 20260505210957 | 84 | 269 | 5.2 | 19.1 | 0.00 | 0.00 | 0.00 | 35 | 1007.9 |
| 20260505203957 | 83 | 176 | 6.1 | 15.6 | 0.00 | 0.00 | 0.00 | 36 | 1007.7 |
| 20260505202958 | 84 | 252 | 5.2 | 14.8 | 0.00 | 0.00 | 0.00 | 38 | 1007.8 |
| 20260505200958 | 83 | 262 | 4.3 | 12.2 | 0.00 | 0.00 | 0.00 | 39 | 1007.8 |
| 20260505195957 | 83 | 143 | 6.1 | 15.6 | 0.00 | 0.00 | 0.00 | 39 | 1008.0 |
| 20260505195000 | 83 | 209 | 5.2 | 15.6 | 0.00 | 0.00 | 0.00 | 40 | 1008.0 |
| 20260505192951 | 84 | 200 | 5.2 | 13.9 | 0.00 | 0.00 | 0.00 | 41 | 1008.3 |
| 20260505191949 | 84 | 183 | 5.2 | 13.9 | 0.00 | 0.00 | 0.00 | 40 | 1008.4 |
| 20260505184949 | 83 | 251 | 5.2 | 15.6 | 0.00 | 0.00 | 0.00 | 42 | 1008.8 |
| 20260505183949 | 83 | 265 | 4.3 | 11.3 | 0.00 | 0.00 | 0.00 | 41 | 1009.0 |
| 20260505181947 | 83 | 174 | 5.2 | 16.5 | 0.00 | 0.00 | 0.00 | 41 | 1009.3 |
| 20260505180947 | 83 | 58 | 4.3 | 11.3 | 0.00 | 0.00 | 0.00 | 45 | 1009.2 |
| 20260505175948 | 83 | 218 | 4.3 | 10.4 | 0.00 | 0.00 | 0.00 | 47 | 1009.5 |
| 20260505174948 | 83 | 234 | 3.5 | 13.0 | 0.00 | 0.00 | 0.00 | 42 | 1009.5 |
| 20260505173947 | 83 | 230 | 2.6 | 11.3 | 0.00 | 0.00 | 0.00 | 46 | 1009.6 |
| 20260505172948 | 83 | 300 | 2.6 | 8.7 | 0.00 | 0.00 | 0.00 | 48 | 1009.6 |
| 20260505171946 | 82 | 148 | 3.5 | 10.4 | 0.00 | 0.00 | 0.00 | 48 | 1009.8 |
| 20260505170948 | 83 | 263 | 2.6 | 7.0 | 0.00 | 0.00 | 0.00 | 49 | 1009.9 |
| 20260505165950 | 82 | 220 | 2.6 | 7.8 | 0.00 | 0.00 | 0.00 | 49 | 1009.9 |
| 20260505164942 | 82 | 266 | 1.7 | 7.8 | 0.00 | 0.00 | 0.00 | 51 | 1010.0 |
| 20260505163943 | 82 | 145 | 1.7 | 7.8 | 0.00 | 0.00 | 0.00 | 51 | 1010.0 |
| 20260505162941 | 82 | 216 | 1.7 | 7.8 | 0.00 | 0.00 | 0.00 | 52 | 1010.0 |
| 20260505160941 | 81 | 157 | 2.6 | 6.1 | 0.00 | 0.00 | 0.00 | 50 | 1010.1 |
| 20260505152941 | 79 | 184 | 2.6 | 7.8 | 0.00 | 0.00 | 0.00 | 53 | 1010.8 |
| 20260505151936 | 78 | 281 | 2.6 | 7.8 | 0.00 | 0.00 | 0.00 | 53 | 1010.8 |
| 20260505150934 | 78 | 193 | 2.6 | 6.1 | 0.00 | 0.00 | 0.00 | 54 | 1010.7 |
| 20260505124932 | 68 | 273 | 1.7 | 6.1 | 0.00 | 0.00 | 0.00 | 69 | 1011.1 |
| 20260505123933 | 67 | 229 | 0.9 | 4.3 | 0.00 | 0.00 | 0.00 | 72 | 1011.2 |
| 20260505115932 | 65 | 150 | 0.0 | 1.7 | 0.00 | 0.00 | 0.00 | 74 | 1011.1 |
| 20260505114933 | 65 | 259 | 0.0 | 0.9 | 0.00 | 0.00 | 0.00 | 77 | 1011.3 |
| 20260505111933 | 60 | 244 | 0.0 | 0.0 | 0.00 | 0.00 | 0.00 | 86 | 1011.1 |
| 20260505101922 | 56 | 244 | 0.0 | 0.0 | 0.00 | 0.00 | 0.00 | 86 | 1011.2 |
| 20260505095921 | 56 | 226 | 0.9 | 2.6 | 0.00 | 0.00 | 0.00 | 85 | 1011.1 |
| 20260505094921 | 56 | 272 | 0.0 | 2.6 | 0.00 | 0.00 | 0.00 | 87 | 1011.0 |
| 20260505092920 | 54 | 295 | 0.0 | 0.9 | 0.00 | 0.00 | 0.00 | 92 | 1010.3 |
| 20260505091923 | 51 | 194 | 0.0 | 0.9 | 0.00 | 0.00 | 0.00 | 94 | 1010.1 |
| 20260505090920 | 51 | 255 | 0.0 | 0.0 | 0.00 | 0.00 | 0.00 | 94 | 1010.1 |
| 20260505085920 | 51 | 255 | 0.0 | 0.0 | 0.00 | 0.00 | 0.00 | 94 | 1010.3 |
| 20260505084920 | 51 | 255 | 0.0 | 0.0 | 0.00 | 0.00 | 0.00 | 94 | 1010.2 |
| 20260505083919 | 51 | 255 | 0.0 | 0.0 | 0.00 | 0.00 | 0.00 | 93 | 1010.3 |
| 20260505082919 | 51 | 255 | 0.0 | 0.0 | 0.00 | 0.00 | 0.00 | 94 | 1010.4 |
| 20260505081916 | 50 | 255 | 0.0 | 0.0 | 0.00 | 0.00 | 0.00 | 93 | 1010.4 |
| 20260505080916 | 50 | 255 | 0.0 | 0.0 | 0.00 | 0.00 | 0.00 | 92 | 1010.2 |
| 20260505075916 | 51 | 255 | 0.0 | 0.0 | 0.00 | 0.00 | 0.00 | 91 | 1010.3 |
| 20260505074919 | 51 | 255 | 0.0 | 0.0 | 0.00 | 0.00 | 0.00 | 90 | 1010.3 |
| 20260505073917 | 52 | 255 | 0.0 | 0.0 | 0.00 | 0.00 | 0.00 | 89 | 1010.3 |
| 20260505072917 | 53 | 255 | 0.0 | 0.0 | 0.00 | 0.00 | 0.00 | 88 | 1010.3 |
| 20260505071917 | 53 | 255 | 0.0 | 0.0 | 0.00 | 0.00 | 0.00 | 86 | 1010.2 |
| 20260505070917 | 54 | 255 | 0.0 | 0.0 | 0.00 | 0.00 | 0.00 | 85 | 1010.3 |
| 20260505065918 | 55 | 255 | 0.0 | 0.0 | 0.00 | 0.00 | 0.00 | 83 | 1010.3 |
| 20260505064918 | 56 | 255 | 0.0 | 0.0 | 0.00 | 0.00 | 0.00 | 82 | 1010.2 |
| 20260505063916 | 57 | 255 | 0.0 | 1.7 | 0.00 | 0.00 | 0.00 | 82 | 1010.3 |
| 20260505062915 | 56 | 218 | 0.0 | 0.9 | 0.00 | 0.00 | 0.00 | 82 | 1010.2 |
| 20260505061918 | 56 | 238 | 0.0 | 0.9 | 0.00 | 0.00 | 0.00 | 82 | 1010.3 |
| 20260505060931 | 56 | 296 | 0.0 | 1.7 | 0.00 | 0.00 | 0.00 | 83 | 1010.0 |
| 20260505055911 | 55 | 162 | 0.0 | 0.9 | 0.00 | 0.00 | 0.00 | 84 | 1010.0 |
| 20260505054909 | 54 | 138 | 0.0 | 0.9 | 0.00 | 0.00 | 0.00 | 84 | 1010.2 |
| 20260505053911 | 54 | 191 | 0.0 | 0.0 | 0.00 | 0.00 | 0.00 | 83 | 1010.4 |
| 20260505052909 | 55 | 183 | 0.0 | 0.9 | 0.00 | 0.00 | 0.00 | 81 | 1010.4 |
| 20260505051910 | 56 | 247 | 0.0 | 1.7 | 0.00 | 0.00 | 0.00 | 81 | 1010.4 |
| 20260505050909 | 56 | 117 | 0.0 | 0.0 | 0.00 | 0.00 | 0.00 | 79 | 1010.5 |
| 20260505040918 | 59 | 239 | 0.0 | 1.7 | 0.00 | 0.00 | 0.00 | 74 | 1010.5 |
| 20260505035909 | 59 | 181 | 0.0 | 2.6 | 0.00 | 0.00 | 0.00 | 72 | 1010.6 |
| 20260505034905 | 59 | 213 | 0.0 | 1.7 | 0.00 | 0.00 | 0.00 | 72 | 1010.7 |
| 20260505033903 | 60 | 144 | 0.0 | 2.6 | 0.00 | 0.00 | 0.00 | 71 | 1010.6 |
| 20260505032905 | 60 | 266 | 0.9 | 3.5 | 0.00 | 0.00 | 0.00 | 70 | 1010.7 |
| 20260505031904 | 60 | 253 | 0.0 | 0.0 | 0.00 | 0.00 | 0.00 | 69 | 1010.7 |
| 20260505030906 | 60 | 206 | 0.0 | 1.7 | 0.00 | 0.00 | 0.00 | 68 | 1010.7 |
| 20260505025859 | 60 | 221 | 0.0 | 1.7 | 0.00 | 0.00 | 0.00 | 67 | 1010.8 |
| 20260505024859 | 61 | 77 | 0.0 | 2.6 | 0.00 | 0.00 | 0.00 | 65 | 1010.8 |
| 20260505023858 | 62 | 219 | 0.0 | 3.5 | 0.00 | 0.00 | 0.00 | 64 | 1010.9 |
| 20260505020905 | 61 | 184 | 0.9 | 4.3 | 0.00 | 0.00 | 0.00 | 62 | 1011.1 |
| 20260505015909 | 60 | 224 | 0.0 | 0.9 | 0.00 | 0.00 | 0.00 | 62 | 1011.0 |
| 20260505014912 | 59 | 298 | 0.0 | 1.7 | 0.00 | 0.00 | 0.00 | 63 | 1010.9 |
| 20260505012854 | 59 | 228 | 0.0 | 0.0 | 0.00 | 0.00 | 0.00 | 63 | 1010.7 |
| 20260505011854 | 60 | 228 | 0.0 | 0.0 | 0.00 | 0.00 | 0.00 | 59 | 1010.6 |
| 20260505010855 | 62 | 228 | 0.0 | 0.9 | 0.00 | 0.00 | 0.00 | 56 | 1010.4 |
| 20260505004852 | 64 | 328 | 0.0 | 0.9 | 0.00 | 0.00 | 0.00 | 52 | 1010.3 |
| 20260505003851 | 65 | 143 | 0.0 | 0.9 | 0.00 | 0.00 | 0.00 | 51 | 1010.2 |
| 20260505002853 | 65 | 182 | 0.0 | 0.9 | 0.00 | 0.00 | 0.00 | 50 | 1009.9 |
| 20260505001853 | 65 | 158 | 0.0 | 1.7 | 0.00 | 0.00 | 0.00 | 50 | 1009.9 |
| 20260504234851 | 68 | 235 | 0.0 | 3.5 | 0.00 | 0.00 | 0.00 | 46 | 1009.4 |
| 20260504233846 | 68 | 194 | 0.9 | 3.5 | 0.00 | 0.00 | 0.00 | 46 | 1009.3 |
| 20260504232843 | 69 | 239 | 0.9 | 4.3 | 0.00 | 0.00 | 0.00 | 45 | 1009.3 |
| 20260504231842 | 70 | 212 | 1.7 | 5.2 | 0.00 | 0.00 | 0.00 | 43 | 1009.3 |
| 20260504230841 | 70 | 224 | 0.9 | 6.1 | 0.00 | 0.00 | 0.00 | 43 | 1009.2 |
| 20260504225841 | 71 | 152 | 1.7 | 6.1 | 0.00 | 0.00 | 0.00 | 42 | 1009.1 |
| 20260504224838 | 72 | 194 | 0.9 | 5.2 | 0.00 | 0.00 | 0.00 | 41 | 1009.1 |
| 20260504223835 | 73 | 246 | 1.7 | 5.2 | 0.00 | 0.00 | 0.00 | 42 | 1009.3 |
| 20260504222835 | 73 | 271 | 2.6 | 7.0 | 0.00 | 0.00 | 0.00 | 41 | 1009.1 |
| 20260504220835 | 74 | 142 | 0.9 | 5.2 | 0.00 | 0.00 | 0.00 | 40 | 1009.2 |
| 20260504215835 | 74 | 280 | 1.7 | 5.2 | 0.00 | 0.00 | 0.00 | 40 | 1009.3 |
| 20260504214835 | 73 | 284 | 3.5 | 7.0 | 0.00 | 0.00 | 0.00 | 40 | 1009.4 |
| 20260504213835 | 74 | 214 | 1.7 | 7.8 | 0.00 | 0.00 | 0.00 | 41 | 1009.4 |
| 20260504212835 | 74 | 127 | 2.6 | 7.0 | 0.00 | 0.00 | 0.00 | 38 | 1009.4 |